Location: Guayaquil
(2.1667°S, 79.9000°W)
Time: 14:18:54
(UTC-05:00)

ISS - Visible Passes

Search period start: 07 August 2020 00:00
Search period end: 17 August 2020 00:00
Orbit: 418 x 420 km, 51.6° (Epoch: 08 August)

Date Brightness Start Highest point End Pass type
(mag) Time Alt. Az. Time Alt. Az. Time Alt. Az.
09 Aug -1.1 19:52:21 10° N 19:52:38 11° N 19:52:38 11° N visible
11 Aug -3.2 19:52:54 10° NW 19:55:41 56° WNW 19:55:41 56° WNW visible
12 Aug -3.3 19:05:28 10° NNW 19:08:40 42° NE 19:10:48 18° ESE visible
13 Aug -1.0 19:55:51 10° W 19:57:40 14° SW 19:58:59 12° SSW visible
14 Aug -1.2 05:53:52 10° S 05:56:21 19° SE 05:58:50 10° ENE visible
14 Aug -1.9 19:07:03 10° WNW 19:10:02 29° SW 19:13:01 10° S visible
16 Aug -3.8 05:54:22 10° SW 05:57:43 73° NW 06:01:02 10° NNE visible
